| time (UTC) | temp F | wind direction | speed MPH | gust MPH | rain 1hr in | rain 24hr in | rain mn in | humidity % | barometer mb |
| 20260906124543 | 63 | 213 | 0.0 | 4.0 | 0.00 | 0.00 | 0.00 | 39 | 1004.9 |
| 20260906123041 | 64 | 215 | 0.0 | 0.0 | 0.00 | 0.00 | 0.00 | 38 | 1004.7 |
| 20260906121539 | 64 | 209 | 0.0 | 8.0 | 0.00 | 0.00 | 0.00 | 37 | 1004.6 |
| 20260906120030 | 64 | 215 | 1.0 | 9.0 | 0.00 | 0.00 | 0.00 | 36 | 1004.7 |
| 20260906114536 | 65 | 207 | 0.0 | 0.0 | 0.00 | 0.00 | 0.00 | 36 | 1004.6 |
| 20260906113009 | 66 | 198 | 0.0 | 7.0 | 0.00 | 0.00 | 0.00 | 34 | 1004.6 |
| 20260906111601 | 67 | 180 | 3.0 | 9.0 | 0.00 | 0.00 | 0.00 | 34 | 1004.6 |
| 20260906110051 | 67 | 232 | 0.0 | 6.0 | 0.00 | 0.00 | 0.00 | 33 | 1004.6 |
| 20260906104557 | 68 | 175 | 4.0 | 12.0 | 0.00 | 0.00 | 0.00 | 34 | 1004.5 |
| 20260906103042 | 68 | 155 | 9.0 | 17.0 | 0.00 | 0.00 | 0.00 | 34 | 1004.5 |
| 20260906101540 | 67 | 159 | 11.0 | 19.0 | 0.00 | 0.00 | 0.00 | 35 | 1004.3 |
| 20260906100034 | 67 | 172 | 6.0 | 13.0 | 0.00 | 0.00 | 0.00 | 34 | 1004.3 |
| 20260906094551 | 67 | 190 | 7.0 | 12.0 | 0.00 | 0.00 | 0.00 | 35 | 1004.3 |
| 20260906093017 | 67 | 184 | 8.0 | 13.0 | 0.00 | 0.00 | 0.00 | 35 | 1004.2 |
| 20260906091501 | 67 | 163 | 10.0 | 17.0 | 0.00 | 0.00 | 0.00 | 36 | 1004.2 |
| 20260906090006 | 67 | 184 | 11.0 | 25.0 | 0.00 | 0.00 | 0.00 | 35 | 1004.0 |
| 20260906084555 | 67 | 172 | 9.0 | 17.0 | 0.00 | 0.00 | 0.00 | 34 | 1004.0 |
| 20260906083052 | 67 | 196 | 6.0 | 11.0 | 0.00 | 0.00 | 0.00 | 31 | 1004.1 |
| 20260906081540 | 67 | 188 | 5.0 | 12.0 | 0.00 | 0.00 | 0.00 | 29 | 1003.9 |
| 20260906080038 | 67 | 184 | 4.0 | 9.0 | 0.00 | 0.00 | 0.00 | 29 | 1004.0 |
| 20260906074526 | 68 | 172 | 2.0 | 10.0 | 0.00 | 0.00 | 0.00 | 30 | 1003.9 |
| 20260906073024 | 68 | 187 | 5.0 | 14.0 | 0.00 | 0.00 | 0.00 | 28 | 1003.7 |
| 20260906071507 | 69 | 166 | 5.0 | 12.0 | 0.00 | 0.00 | 0.00 | 28 | 1003.8 |
| 20260906070057 | 69 | 185 | 3.0 | 12.0 | 0.00 | 0.00 | 0.00 | 28 | 1003.8 |
| 20260906064548 | 69 | 212 | 6.0 | 10.0 | 0.00 | 0.00 | 0.00 | 27 | 1003.9 |
| 20260906063049 | 70 | 200 | 5.0 | 11.0 | 0.00 | 0.00 | 0.00 | 28 | 1003.8 |
| 20260906061535 | 70 | 190 | 5.0 | 10.0 | 0.00 | 0.00 | 0.00 | 26 | 1003.7 |
| 20260906060032 | 70 | 195 | 5.0 | 9.0 | 0.00 | 0.00 | 0.00 | 26 | 1003.7 |
| 20260906054524 | 71 | 191 | 0.0 | 9.0 | 0.00 | 0.00 | 0.00 | 27 | 1003.6 |
| 20260906053016 | 70 | 175 | 7.0 | 16.0 | 0.00 | 0.00 | 0.00 | 28 | 1003.4 |
| 20260906051507 | 71 | 194 | 0.0 | 8.0 | 0.00 | 0.00 | 0.00 | 24 | 1003.4 |
| 20260906050107 | 71 | 188 | 2.0 | 7.0 | 0.00 | 0.00 | 0.00 | 24 | 1003.3 |
| 20260906044557 | 72 | 174 | 2.0 | 8.0 | 0.00 | 0.00 | 0.00 | 23 | 1003.3 |
| 20260906043052 | 73 | 218 | 2.0 | 6.0 | 0.00 | 0.00 | 0.00 | 22 | 1003.2 |
| 20260906041544 | 73 | 194 | 1.0 | 9.0 | 0.00 | 0.00 | 0.00 | 21 | 1003.2 |
| 20260906040036 | 73 | 180 | 6.0 | 9.0 | 0.00 | 0.00 | 0.00 | 21 | 1003.1 |
| 20260906034529 | 74 | 207 | 1.0 | 7.0 | 0.00 | 0.00 | 0.00 | 22 | 1002.9 |
| 20260906033039 | 75 | 188 | 2.0 | 7.0 | 0.00 | 0.00 | 0.00 | 21 | 1002.5 |
| 20260906031536 | 75 | 234 | 4.0 | 10.0 | 0.00 | 0.00 | 0.00 | 20 | 1002.5 |
| 20260906030020 | 76 | 236 | 5.0 | 10.0 | 0.00 | 0.00 | 0.00 | 20 | 1002.3 |
| 20260906024535 | 77 | 209 | 3.0 | 9.0 | 0.00 | 0.00 | 0.00 | 20 | 1001.8 |
| 20260906023024 | 78 | 198 | 5.0 | 12.0 | 0.00 | 0.00 | 0.00 | 20 | 1001.6 |
| 20260906021513 | 79 | 171 | 4.0 | 11.0 | 0.00 | 0.00 | 0.00 | 19 | 1001.7 |
| 20260906020012 | 80 | 201 | 3.0 | 14.0 | 0.00 | 0.00 | 0.00 | 18 | 1001.4 |
| 20260906014508 | 81 | 188 | 6.0 | 11.0 | 0.00 | 0.00 | 0.00 | 17 | 1001.5 |
| 20260906013100 | 81 | 177 | 11.0 | 19.0 | 0.00 | 0.00 | 0.00 | 16 | 1001.5 |
| 20260906011549 | 82 | 186 | 8.0 | 21.0 | 0.00 | 0.00 | 0.00 | 16 | 1001.6 |
| 20260906010041 | 83 | 225 | 11.0 | 21.0 | 0.00 | 0.00 | 0.00 | 16 | 1001.5 |
| 20260906004531 | 83 | 192 | 12.0 | 25.0 | 0.00 | 0.00 | 0.00 | 16 | 1001.6 |
| 20260906003024 | 84 | 205 | 11.0 | 21.0 | 0.00 | 0.00 | 0.00 | 16 | 1001.6 |
| 20260906001519 | 85 | 191 | 11.0 | 21.0 | 0.00 | 0.00 | 0.00 | 16 | 1001.8 |
| 20260906000015 | 85 | 161 | 17.0 | 30.0 | 0.00 | 0.00 | 0.00 | 15 | 1001.7 |
| 20260905234506 | 85 | 171 | 10.0 | 25.0 | 0.00 | 0.00 | 0.00 | 15 | 1001.9 |
| 20260905233106 | 86 | 188 | 14.0 | 26.0 | 0.00 | 0.00 | 0.00 | 15 | 1002.0 |
| 20260905231505 | 86 | 159 | 16.0 | 28.0 | 0.00 | 0.00 | 0.00 | 14 | 1002.0 |
| 20260905230057 | 87 | 219 | 14.0 | 34.0 | 0.00 | 0.00 | 0.00 | 14 | 1002.2 |
| 20260905224549 | 87 | 166 | 11.0 | 33.0 | 0.00 | 0.00 | 0.00 | 14 | 1002.4 |
| 20260905223049 | 87 | 184 | 18.0 | 24.0 | 0.00 | 0.00 | 0.00 | 13 | 1002.6 |
| 20260905221603 | 88 | 184 | 16.0 | 36.0 | 0.00 | 0.00 | 0.00 | 13 | 1002.6 |
| 20260905220031 | 88 | 158 | 19.0 | 33.0 | 0.00 | 0.00 | 0.00 | 13 | 1002.5 |
| 20260905214526 | 88 | 139 | 11.0 | 26.0 | 0.00 | 0.00 | 0.00 | 16 | 1002.8 |
| 20260905213013 | 88 | 145 | 14.0 | 24.0 | 0.00 | 0.00 | 0.00 | 13 | 1002.7 |
| 20260905211605 | 88 | 204 | 11.0 | 19.0 | 0.00 | 0.00 | 0.00 | 19 | 1002.8 |
| 20260905210058 | 88 | 178 | 9.0 | 25.0 | 0.00 | 0.00 | 0.00 | 18 | 1003.3 |
| 20260905204547 | 87 | 128 | 17.0 | 26.0 | 0.00 | 0.00 | 0.00 | 14 | 1003.3 |
| 20260905203040 | 87 | 178 | 14.0 | 31.0 | 0.00 | 0.00 | 0.00 | 19 | 1003.3 |
| 20260905201527 | 86 | 153 | 9.0 | 26.0 | 0.00 | 0.00 | 0.00 | 20 | 1003.5 |
| 20260905200020 | 86 | 158 | 11.0 | 23.0 | 0.00 | 0.00 | 0.00 | 19 | 1003.6 |
| 20260905194509 | 86 | 132 | 12.0 | 24.0 | 0.00 | 0.00 | 0.00 | 20 | 1003.8 |
| 20260905193113 | 85 | 161 | 8.0 | 21.0 | 0.00 | 0.00 | 0.00 | 21 | 1004.0 |
| 20260905191550 | 85 | 166 | 16.0 | 24.0 | 0.00 | 0.00 | 0.00 | 20 | 1004.3 |
| 20260905190042 | 84 | 147 | 17.0 | 28.0 | 0.00 | 0.00 | 0.00 | 16 | 1004.5 |
| 20260905184540 | 84 | 153 | 13.0 | 28.0 | 0.00 | 0.00 | 0.00 | 15 | 1004.8 |
| 20260905183122 | 83 | 148 | 14.0 | 32.0 | 0.00 | 0.00 | 0.00 | 18 | 1005.0 |
| 20260905181511 | 83 | 155 | 15.0 | 25.0 | 0.00 | 0.00 | 0.00 | 21 | 1005.0 |
| 20260905180001 | 83 | 171 | 11.0 | 24.0 | 0.00 | 0.00 | 0.00 | 22 | 1005.1 |
| 20260905174604 | 82 | 170 | 15.0 | 28.0 | 0.00 | 0.00 | 0.00 | 18 | 1005.0 |
| 20260905173050 | 80 | 154 | 8.0 | 30.0 | 0.00 | 0.00 | 0.00 | 20 | 1005.1 |
| 20260905171534 | 79 | 148 | 13.0 | 30.0 | 0.00 | 0.00 | 0.00 | 24 | 1005.2 |
| 20260905170022 | 78 | 172 | 10.0 | 20.0 | 0.00 | 0.00 | 0.00 | 27 | 1005.4 |
| 20260905164510 | 76 | 107 | 6.0 | 19.0 | 0.00 | 0.00 | 0.00 | 28 | 1005.5 |
| 20260905163059 | 75 | 130 | 13.0 | 22.0 | 0.00 | 0.00 | 0.00 | 26 | 1005.5 |
| 20260905161650 | 74 | 150 | 11.0 | 26.0 | 0.00 | 0.00 | 0.00 | 29 | 1005.3 |
| 20260905160033 | 73 | 141 | 10.0 | 18.0 | 0.00 | 0.00 | 0.00 | 32 | 1005.4 |
| 20260905154526 | 72 | 123 | 8.0 | 16.0 | 0.00 | 0.00 | 0.00 | 31 | 1005.4 |
| 20260905153016 | 71 | 128 | 3.0 | 17.0 | 0.00 | 0.00 | 0.00 | 33 | 1005.5 |
| 20260905151506 | 70 | 131 | 10.0 | 17.0 | 0.00 | 0.00 | 0.00 | 30 | 1005.6 |
| 20260905150058 | 69 | 166 | 5.0 | 14.0 | 0.00 | 0.00 | 0.00 | 30 | 1005.7 |
| 20260905144547 | 68 | 165 | 9.0 | 16.0 | 0.00 | 0.00 | 0.00 | 31 | 1005.4 |
| 20260905143039 | 66 | 158 | 6.0 | 12.0 | 0.00 | 0.00 | 0.00 | 35 | 1005.2 |
| 20260905141530 | 65 | 156 | 3.0 | 11.0 | 0.00 | 0.00 | 0.00 | 35 | 1005.1 |
| 20260905140021 | 65 | 108 | 0.0 | 10.0 | 0.00 | 0.00 | 0.00 | 34 | 1005.2 |
| 20260905134520 | 64 | 123 | 2.0 | 15.0 | 0.00 | 0.00 | 0.00 | 31 | 1004.9 |
| 20260905133009 | 63 | 140 | 10.0 | 15.0 | 0.00 | 0.00 | 0.00 | 32 | 1004.7 |
| 20260905131506 | 62 | 163 | 9.0 | 13.0 | 0.00 | 0.00 | 0.00 | 37 | 1004.5 |
| 20260905130057 | 63 | 192 | 5.0 | 11.0 | 0.00 | 0.00 | 0.00 | 35 | 1004.3 |